Weather History for Lone Rock, WI

Change the Weather History Date:

Thursday, April 25, 2013

  Actual Average Record
Temperature  
Mean Temperature 44 °F -  
Max Temperature 52 °F 60 °F 75 °F (2008)
Min Temperature 36 °F 38 °F 30 °F (1999)
Degree Days  
Heating Degree Days 21    
Moisture  
Dew Point 31 °F    
Average Humidity 65    
Maximum Humidity 87    
Minimum Humidity 35    
Precipitation  
Precipitation 0.00 in - - ()
Sea Level Pressure  
Sea Level Pressure 30.14 in    
Wind  
Wind Speed 10 mph (West)    
Max Wind Speed 17 mph    
Max Gust Speed 22 mph    
Visibility 10 miles    
Events Rain    
Averages and records for this station are not official NWS values.
T = Trace of Precipitation, MM = Missing Value Source: NWS Daily Summary

Daily Weather History Graph

Daily Weather History Graph

Search for Another Location

Airport:

Trip Planner

Search our weather history database for the weather conditions in past years. The results will help you decide how hot, cold, wet, or windy it might be!

Date:

Astronomy

Apr. 25, 2013 Rise Set
Actual Time 6:02 AM CDT 7:55 PM CDT
Civil Twilight 5:31 AM CDT 8:26 PM CDT
Nautical Twilight 4:54 AM CDT 9:03 PM CDT
Astronomical Twilight 4:14 AM CDT 9:44 PM CDT
Moon 8:09 PM CDT (4/25) 5:45 AM CDT (4/25)
Length of Visible Light 14h 54m
Length of Day
13h 53m
Full, 100% of the Moon is Illuminated
Apr 25
Full
Apr 25
Full
May 2
Last Quarter
May 9
New
May 17
First Quarter

Hourly Weather History & Observations

Time (CDT) Temp. Windchill Dew Point Humidity Pressure Visibility Wind Dir Wind Speed Gust Speed Precip Events Conditions
12:56 AM 44.1 °F 39.0 °F 36.0 °F 73% 29.99 in 10.0 mi WSW 9.2 mph - N/A   Overcast
1:03 AM 42.8 °F 37.0 °F 35.6 °F 76% 29.99 in 10.0 mi WSW 10.4 mph - N/A   Overcast
1:56 AM 43.0 °F 36.0 °F 35.1 °F 74% 29.99 in 10.0 mi West 13.8 mph - N/A   Overcast
2:03 AM 42.8 °F 36.2 °F 35.6 °F 76% 29.99 in 10.0 mi WNW 12.7 mph - N/A   Overcast
2:56 AM 41.0 °F 34.3 °F 32.0 °F 70% 30.00 in 10.0 mi West 11.5 mph - N/A   Overcast
3:43 AM 41.0 °F 33.5 °F 32.0 °F 70% 30.02 in 10.0 mi West 13.8 mph - N/A   Overcast
3:56 AM 41.0 °F 34.3 °F 32.0 °F 70% 30.02 in 10.0 mi West 11.5 mph - N/A   Overcast
4:52 AM 39.2 °F 32.0 °F 32.0 °F 75% 30.04 in 10.0 mi West 11.5 mph - N/A   Overcast
4:56 AM 39.9 °F 33.4 °F 32.0 °F 73% 30.04 in 10.0 mi West 10.4 mph - N/A   Overcast
5:29 AM 39.2 °F 33.6 °F 32.0 °F 75% 30.06 in 10.0 mi West 8.1 mph - N/A   Overcast
5:56 AM 39.0 °F 32.8 °F 32.0 °F 76% 30.06 in 10.0 mi West 9.2 mph - N/A   Overcast
6:31 AM 37.4 °F 31.4 °F 33.8 °F 87% 30.08 in 10.0 mi West 8.1 mph - N/A   Overcast
6:40 AM 37.4 °F 30.8 °F 33.8 °F 87% 30.09 in 10.0 mi West 9.2 mph - N/A   Overcast
6:56 AM 37.9 °F 32.7 °F 34.0 °F 86% 30.09 in 8.0 mi West 6.9 mph - 0.00 in Rain Light Rain
7:22 AM 37.4 °F 31.4 °F 33.8 °F 87% 30.11 in 10.0 mi West 8.1 mph - 0.00 in   Overcast
7:56 AM 37.9 °F 30.5 °F 33.1 °F 83% 30.14 in 10.0 mi West 11.5 mph - 0.00 in   Overcast
8:32 AM 39.2 °F 31.2 °F 32.0 °F 75% 30.16 in 10.0 mi West 13.8 mph - N/A   Overcast
8:56 AM 39.0 °F 31.4 °F 30.9 °F 73% 30.17 in 10.0 mi West 12.7 mph 20.7 mph N/A   Overcast
9:33 AM 42.8 °F 35.4 °F 30.2 °F 61% 30.18 in 10.0 mi WNW 15.0 mph 20.7 mph N/A   Mostly Cloudy
9:56 AM 42.1 °F 34.9 °F 30.0 °F 62% 30.19 in 10.0 mi West 13.8 mph 20.7 mph N/A   Partly Cloudy
10:13 AM 42.8 °F 35.8 °F 28.4 °F 57% 30.20 in 10.0 mi WNW 13.8 mph 20.7 mph N/A   Mostly Cloudy
10:31 AM 44.6 °F 38.1 °F 28.4 °F 53% 30.20 in 10.0 mi WNW 13.8 mph - N/A   Overcast
10:56 AM 43.0 °F 35.1 °F 28.9 °F 58% 30.21 in 10.0 mi West 17.3 mph 21.9 mph N/A   Overcast
11:56 AM 44.1 °F 38.6 °F 28.9 °F 55% 30.23 in 10.0 mi West 10.4 mph - N/A   Overcast
12:56 PM 45.0 °F 39.7 °F 28.9 °F 53% 30.24 in 10.0 mi WNW 10.4 mph - N/A   Mostly Cloudy
1:56 PM 48.0 °F - 28.0 °F 46% 30.25 in 10.0 mi West 9.2 mph - N/A   Overcast
2:56 PM 48.9 °F - 28.0 °F 44% 30.24 in 10.0 mi SW 8.1 mph - N/A   Partly Cloudy
3:56 PM 48.9 °F - 27.0 °F 43% 30.23 in 10.0 mi Variable 3.5 mph - N/A   Clear
4:56 PM 51.1 °F - 27.0 °F 39% 30.23 in 10.0 mi West 6.9 mph - N/A   Clear
5:56 PM 51.1 °F - 25.0 °F 36% 30.23 in 10.0 mi WSW 9.2 mph - N/A   Scattered Clouds
6:56 PM 51.1 °F - 24.1 °F 35% 30.22 in 10.0 mi SW 6.9 mph - N/A   Clear
7:56 PM 48.0 °F - 24.1 °F 39% 30.22 in 10.0 mi SSW 4.6 mph - N/A   Clear
8:56 PM 39.9 °F 37.8 °F 28.0 °F 63% 30.23 in 10.0 mi East 3.5 mph - N/A   Clear
9:56 PM 39.9 °F - 28.0 °F 63% 30.26 in 10.0 mi Calm Calm - N/A   Clear
10:56 PM 37.0 °F 33.3 °F 28.0 °F 70% 30.27 in 10.0 mi ENE 4.6 mph - N/A   Clear
11:56 PM 36.0 °F - 30.0 °F 79% 30.26 in 10.0 mi Calm Calm - N/A   Clear